EHI
7 7 9 10 10 9 9 7 5 3 1 1 3 3 3 2 1 0 0 0 0 0 0 0 0 0 0 0 0 0 0 0 0 0 0 1 2 2
8 6 6 6 6 6 7 6 4 3 2 1 1 2 2 2 0 0 0 0 0 0 0 0 0 0 0 0 0 0 0 0 0 0 0 0 1 1
7 5 3 3 2 3 4 3 2 2 2 1 1 1 2 2 1 1 0 0 0 0 0 0 0 0 0 0 0 0 0 0 0 0 0 0 0 0
4 3 2 1 1 1 1 0 0 1 1 1 1 2 2 1 2 1 0 0 0 0 0 0 0 0 0 0 0 0 0 0 0 0 0 0 0 0
2 2 1 0 0 0 0 0 0 0 0 0 1 2 2 2 2 2 1 1 0 0 0 0 0 0 0 0 0 0 0 0 0 0 0 0 0 0
1 1 0 0 0 0 0 0 0 0 0 0 0 1 2 2 2 2 2 1 0 0 0 0 0 0 0 0 0 0 0 0 0 0 0 0 0 0
0 0 0 0 0 0 0 0 0 0 0 0 0 0 1 2 1 1 1 1 0 1 1 1 1 0 0 0 0 0 0 0 0 0 0 0 0 0
0 0 0 0 0 0 0 0 0 0 0 0 0 0 0 0 0 0 0 0 0 1 2 3 2 1 0 0 0 0 0 0 0 0 0 0 0 0
1 0 0 0 0 0 0 1 1 0 0 0 0 0 0 0 0 0 0 0 0 1 2 3 3 2 0 0 0 0 0 0 0 0 0 0 0 0
2 1 1 1 0 0 1 2 2 1 0 0 0 0 0 0 0 0 0 0 0 1 1 1 1 1 0 0 0 0 0 0 0 0 0 0 0 0
3 2 2 1 0 0 1 2 2 1 0 0 0 0 0 0 0 0 0 0 0 0 0 0 0 0 0 0 0 0 0 0 0 0 0 0 0 0
3 2 1 1 0 0 1 1 1 0 0 0 1 1 1 1 0 0 1 1 1 0 0 1 1 1 1 1 0 0 0 0 0 0 0 0 0 0
3 3 2 1 0 0 0 0 0 0 0 0 1 2 2 2 1 1 2 2 2 1 1 1 2 3 2 1 0 0 0 0 0 0 0 0 0 0
3 3 2 1 0 0 0 0 0 0 0 0 1 1 1 2 1 1 2 3 3 2 2 2 3 3 3 2 1 1 1 0 1 1 1 1 0 0
2 2 2 1 0 0 0 0 0 0 0 0 0 0 0 1 1 1 2 2 2 2 2 3 3 3 3 3 3 2 2 2 2 2 2 2 1 0
1 1 1 1 1 1 1 1 1 1 0 0 0 0 0 0 0 0 1 1 1 1 2 2 3 3 3 3 3 3 3 3 3 3 3 3 1 1
0 0 0 1 2 2 2 2 2 1 1 0 0 0 0 0 0 0 0 0 0 0 1 1 1 2 2 2 2 3 3 3 3 3 3 2 1 0
0 0 1 1 1 1 1 1 1 1 1 0 0 0 0 0 0 0 0 0 0 0 0 0 0 1 1 1 1 1 2 3 3 2 1 0 0 0
0 0 1 0 0 0 0 0 0 0 0 0 0 1 0 0 0 0 0 0 0 0 0 0 0 0 0 0 0 0 1 2 2 1 0 0 0 0
0 0 0 0 0 0 0 0 0 0 0 0 0 0 0 0 0 0 0 0 0 0 0 0 0 0 0 0 0 0 0 1 1 0 0 0 0 0
0 0 0 0 0 0 0 0 0 0 0 0 0 0 0 0 0 0 0 0 0 0 0 0 0 0 0 0 0 0 0 0 0 0 0 0 0 0
0 0 0 0 0 0 0 0 0 0 0 0 0 0 0 0 0 0 0 0 0 0 0 0 0 0 0 0 0 0 0 0 0 0 0 0 0 0
0 0 0 0 0 0 0 0 0 0 0 0 0 0 0 0 0 0 0 0 0 0 0 0 0 0 0 0 0 0 0 0 0 0 0 0 0 0
Wind_Speed
2 2 3 2 2 2 2 3 4 4 3 1 1 0 1 1 1 2 2 3 4 4 4 4 4 5 5 5 5 5 5 4 4 4 4 5 6 6
1 2 2 2 2 2 2 2 3 4 3 1 1 1 2 2 1 2 2 3 5 5 4 4 5 5 5 5 5 5 6 5 5 4 5 5 5 6
2 1 2 2 2 2 2 2 3 3 3 2 2 1 1 3 2 2 3 3 2 5 5 4 4 4 4 5 5 6 6 6 6 5 5 5 6 6
2 2 2 2 2 3 2 3 3 2 3 3 3 2 2 3 2 3 2 2 2 4 5 5 5 5 5 5 5 5 5 5 5 6 6 6 6 6
3 3 3 3 3 2 3 3 3 2 3 3 3 2 2 2 2 2 3 2 3 3 5 6 6 6 5 5 6 5 5 5 5 6 6 6 6 6
3 3 3 3 3 3 3 3 3 3 2 3 3 2 2 2 2 2 2 2 3 2 1 2 4 7 7 6 6 6 5 5 5 5 5 5 6 5
2 2 2 3 4 3 3 3 3 3 2 2 2 2 2 2 2 3 3 3 3 2 2 3 3 4 5 7 7 6 5 5 4 4 4 4 4 5
3 3 2 1 0 0 1 3 3 3 3 3 3 3 3 3 3 4 4 3 3 2 3 3 3 3 3 3 4 6 5 4 4 4 4 4 4 4
2 3 3 2 1 2 1 2 2 3 4 4 4 4 4 4 4 5 4 5 5 3 3 4 3 3 3 1 6 6 5 4 4 4 3 4 4 4
2 2 2 2 3 3 3 2 2 2 2 3 3 4 4 4 5 5 5 5 4 3 3 4 3 3 3 2 7 7 6 5 5 4 4 4 4 4
2 2 2 2 2 2 3 3 3 3 2 2 2 4 4 5 5 4 4 4 4 2 2 3 3 3 3 3 4 7 6 6 5 5 4 4 5 5
1 2 1 1 1 3 4 3 4 4 4 2 3 4 5 4 5 5 4 4 4 3 2 3 3 2 3 2 2 3 4 6 7 7 6 5 5 5
2 2 1 2 1 3 5 4 4 5 5 5 4 3 3 2 2 2 3 4 4 4 2 3 3 3 3 2 2 2 3 3 4 5 7 7 6 5
3 2 2 1 2 4 4 3 4 6 5 4 4 3 3 2 2 2 3 4 4 4 3 4 4 3 3 3 2 2 2 3 3 3 3 6 6 6
2 2 2 3 4 4 4 5 5 5 4 4 4 4 3 3 2 2 3 3 4 4 3 4 4 3 3 3 3 3 3 3 3 3 2 2 3 4
3 2 4 5 6 4 3 3 3 3 4 4 4 4 3 2 3 3 3 4 4 3 2 3 4 4 4 3 3 3 3 3 2 2 2 2 3 3
4 3 3 3 3 2 3 2 3 3 3 4 4 4 3 3 3 3 4 4 4 3 2 2 3 3 3 3 4 4 3 3 2 2 2 3 3 3
5 4 3 3 4 3 3 3 3 3 3 4 4 4 4 4 4 3 4 4 4 3 3 2 2 2 3 2 3 4 3 3 2 2 3 3 3 2
5 4 4 3 4 4 4 4 4 3 3 4 4 4 4 4 4 4 4 4 4 3 3 2 3 3 4 3 2 2 3 3 2 2 3 3 3 2
4 4 4 4 4 4 4 4 4 4 4 4 4 4 5 5 5 4 4 4 4 4 3 3 3 3 4 3 2 1 3 3 3 3 2 2 2 1
3 3 4 4 4 4 4 5 5 5 5 5 4 5 5 5 5 5 4 4 5 4 4 3 1 2 3 2 3 2 2 3 2 3 3 3 3 3
4 4 4 4 4 4 5 5 5 5 5 5 5 5 5 5 5 6 5 4 4 4 4 2 2 3 3 3 3 3 2 3 4 4 4 4 4 3
4 4 4 4 4 4 5 5 7 5 5 5 5 5 5 5 5 5 5 5 4 4 4 3 3 3 3 4 3 3 3 3 3 3 3 4 5 5
Wind_Direction
249 238 257 264 257 260 271 272 274 279 279 232 264 274 273 270 147 244 237 166 186 204 212 214 210 215 221 221 219 214 211 217 224 230 234 237 239 239
276 295 282 274 271 258 255 256 263 268 282 315 300 298 327 299 195 264 247 183 199 203 208 208 209 214 218 223 222 211 210 214 216 227 235 242 250 245
272 268 274 291 284 278 270 266 263 264 268 286 293 299 281 277 273 274 254 245 204 178 193 200 205 210 216 223 223 219 219 219 221 230 237 243 252 248
293 293 287 276 276 280 291 285 282 277 267 277 282 281 266 266 260 264 265 258 253 157 180 198 205 210 214 218 220 218 221 225 227 232 237 242 246 245
318 313 307 300 287 295 287 284 287 283 278 270 273 289 282 289 283 270 269 270 265 184 183 194 199 205 211 212 213 213 215 221 229 235 236 239 242 244
325 322 324 319 311 298 277 282 288 290 275 272 281 287 291 307 293 281 280 275 274 260 232 219 203 204 209 210 209 209 210 216 225 230 230 231 234 238
321 323 338 359 1 333 321 320 305 289 286 285 286 289 301 314 306 292 282 282 270 259 261 244 226 227 211 204 203 202 203 208 216 223 225 227 228 230
320 315 297 256 339 240 324 324 317 296 300 294 285 289 295 298 302 288 284 278 276 261 269 266 257 249 243 228 157 166 186 198 207 213 217 218 223 228
318 317 319 20 347 317 251 224 244 245 252 276 285 290 289 285 283 279 284 284 283 276 270 263 253 253 251 186 145 162 177 191 204 207 207 213 220 226
307 310 316 337 345 331 317 312 297 281 266 265 285 285 287 293 284 277 276 272 266 256 256 265 258 265 263 226 155 165 177 190 201 205 212 215 215 222
277 298 298 302 15 319 287 294 299 292 237 226 275 285 291 281 277 271 269 266 268 261 243 264 270 276 268 239 168 169 184 192 196 200 209 222 220 218
265 234 139 310 341 294 281 288 290 301 308 291 257 246 248 245 244 257 267 267 269 270 253 262 261 268 265 248 226 193 193 189 193 198 203 211 218 225
296 298 42 100 271 279 278 283 294 297 288 276 268 268 262 253 253 266 282 281 279 275 263 262 273 268 262 265 258 237 228 221 205 197 198 201 210 235
302 315 26 82 280 275 275 289 285 275 270 273 281 284 282 283 285 282 280 284 284 280 279 269 271 269 266 264 258 253 256 251 243 236 212 182 199 218
310 352 319 255 256 248 234 252 257 262 276 283 288 288 290 299 289 263 253 255 261 263 256 252 255 249 254 259 258 254 254 249 245 242 235 210 213 205
268 240 225 236 247 267 250 237 257 287 292 288 289 289 289 279 273 273 268 264 262 256 235 237 247 246 246 249 248 252 254 252 241 241 248 246 239 232
297 271 273 272 271 275 281 284 280 273 277 291 293 290 286 283 279 280 274 266 265 269 260 232 229 232 237 256 253 252 253 250 242 244 240 249 249 244
277 270 275 283 291 294 292 286 283 290 296 295 289 283 280 278 275 271 268 269 270 269 269 267 252 234 226 222 258 258 258 256 245 227 249 241 246 238
254 269 278 284 287 288 287 286 288 291 284 276 276 278 278 275 275 274 272 273 277 275 269 261 254 249 247 248 213 230 263 263 252 235 239 247 252 257
258 275 280 281 281 284 287 287 287 286 279 278 278 280 280 277 274 271 266 268 271 272 269 255 252 263 274 286 289 230 222 253 253 248 245 247 243 206
274 277 280 284 288 289 290 289 288 286 287 284 279 281 280 280 276 269 262 251 260 260 261 260 273 265 270 264 252 244 218 199 245 271 267 254 243 234
285 281 280 284 285 283 279 279 278 278 280 278 280 278 276 273 269 267 263 253 246 253 264 263 211 230 237 237 240 238 238 202 187 210 253 281 281 266
288 291 287 278 278 280 281 280 280 279 276 276 275 275 277 275 272 265 258 256 255 250 248 251 241 228 232 232 236 238 229 230 227 215 214 210 216 232